Flag for France Weather past 2 weeks in Saint-Étienne, France

Now
52 °F

Broken clouds.


Feels Like: 47 °F
Forecast: 46 / 66 °F
Wind: 15 mph from North

Location: St-Etienne Boutheon

Current Time: May 26, 2015 at 10:20:41 AM

Latest Report: May 26, 2015 at 9:30 AM


Visibility: N/A

Pressure: 30.07 "Hg

Humidity: 88%

Dew point: 48 °F

Location of Saint-ÉtienneLocation

Historic Weather in Saint-Étienne — Graph

°F

Saint-Étienne temperature yesterday

Maximum temperature yesterday: 70 °F (at 1:30 PM)
Minimum temperature yesterday: 48 °F (at 6:30 AM)
Average temperature yesterday: 60 °F

Past Weeks' High & Low Weather Summary

 TemperatureHumidityPressure
High93 °F (May 13, 3:00 PM)100% (May 26, 3:30 AM)30.36 "Hg (May 26, 3:30 AM)
Low39 °F (May 21, 3:30 AM)18% (May 12, 3:00 PM)29.80 "Hg (May 18, 7:30 PM)
Average59 °F63%30.09 "Hg
* Reported May 11 9:00 AM — May 26 9:00 AM, Saint-Étienne, Weather by CustomWeather, © 2015

Note: Actual official high and low records may vary slightly from our data, if they occured in-between our weather recording intervals... More about our weather records

Advertising

Saint-Étienne weather history for previous 24 hours

 ConditionsComfort  
Time TempWeatherWind HumidityBarometerVisibility
9:00 AM
Tue, May 26
52 °FBroken clouds.12 mph88%30.07 "HgN/A
8:30 AM52 °FLight rain. Broken clouds.12 mph94%30.04 "Hg6 mi
8:00 AM52 °FLight rain. Broken clouds.10 mph94%30.04 "Hg6 mi
7:30 AM54 °FLight rain. Broken clouds.7 mph94%30.04 "Hg4 mi
7:00 AM54 °FLight rain. Partly cloudy.6 mph94%30.04 "Hg6 mi
6:30 AM54 °FLight rain. Passing clouds.6 mph94%30.01 "Hg5 mi
6:00 AM54 °FLight rain. Passing clouds.6 mph94%30.01 "Hg5 mi
5:30 AM54 °FPartly cloudy.5 mph94%30.01 "HgN/A
5:00 AM54 °FPartly cloudy.3 mph94%30.01 "HgN/A
4:30 AM54 °FRain. Fog.6 mph94%30.01 "Hg3 mi
4:00 AM54 °FLight rain. Mostly cloudy.3 mph100%30.04 "HgN/A
3:30 AM54 °FLight rain. Partly cloudy.5 mph100%30.01 "HgN/A
3:00 AM55 °FLight rain. Partly cloudy.7 mph88%30.04 "HgN/A
2:30 AM55 °FMostly cloudy.8 mph88%30.01 "HgN/A
2:00 AM55 °FMostly cloudy.6 mph94%30.04 "HgN/A
1:30 AM55 °FMostly cloudy.No wind94%30.04 "HgN/A
1:00 AM55 °FPassing clouds.1 mph94%30.04 "HgN/A
12:30 AM55 °FPartly cloudy.3 mph94%30.04 "HgN/A
12:00 AM55 °FLight rain. Passing clouds.3 mph94%30.04 "HgN/A
11:30 PM
Mon, May 25
55 °FLight rain. Partly cloudy.3 mph94%30.04 "HgN/A
11:00 PM57 °FRain. Fog.2 mph88%30.04 "Hg3 mi
10:30 PM57 °FMostly cloudy.No wind88%30.04 "HgN/A
10:00 PM57 °FLight rain. Partly sunny.6 mph88%30.04 "Hg4 mi
9:30 PM61 °FPartly sunny.3 mph72%30.01 "HgN/A
9:00 PM61 °FMore clouds than sun.5 mph72%30.01 "HgN/A
8:30 PM61 °FMostly cloudy.7 mph72%30.01 "HgN/A
8:00 PM63 °FMostly cloudy.8 mph68%30.01 "HgN/A
7:30 PM63 °FMild.7 mph68%30.01 "HgN/A
7:00 PM63 °FPartly sunny.7 mph68%30.01 "HgN/A
6:30 PM63 °FPartly sunny.9 mph68%30.01 "HgN/A
6:00 PM66 °FBroken clouds.8 mph52%30.01 "HgN/A
5:30 PM66 °FPartly sunny.7 mph52%30.01 "HgN/A
5:00 PM66 °FPartly sunny.8 mph49%30.01 "HgN/A
4:30 PM66 °FPartly sunny.10 mph49%30.04 "HgN/A
4:00 PM66 °FPartly sunny.12 mph49%30.04 "HgN/A
3:30 PM66 °FPartly sunny.10 mph46%30.04 "HgN/A
3:00 PM66 °FPartly sunny.10 mph46%30.04 "HgN/A
2:30 PM66 °FPartly sunny.12 mph46%30.04 "HgN/A
2:00 PM68 °FScattered clouds.12 mph40%30.04 "HgN/A
1:30 PM70 °FScattered clouds.14 mph38%30.04 "HgN/A
1:00 PM68 °FScattered clouds.12 mph38%30.04 "HgN/A
12:30 PM66 °FScattered clouds.9 mph46%30.04 "HgN/A
12:00 PM66 °FScattered clouds.10 mph46%30.07 "HgN/A
11:24 AM64 °FScattered clouds.8 mph56%30.07 "HgN/A
11:00 AM64 °FScattered clouds.7 mph60%30.07 "HgN/A
10:30 AM61 °FScattered clouds.5 mph72%30.07 "HgN/A
10:00 AM59 °FScattered clouds.6 mph72%30.07 "HgN/A
Weather by CustomWeather, © 2015

See weather overviewHow to use our weather pages